Regional Weather Roundup
Issued by NWS

Home | Current Version | Previous Version | Graphics & Text | Print | Product List | Glossary On
Versions: 1 2 3 4 5 6 7 8 9 10 11 12 13 14 15 16 17 18 19 20 21 22 23 24 25 26 27 28 29 30 31 32 33 34 35 36 37 38 39 40 41 42 43 44 45 46 47 48 49 50
000
ASUS43 KIND 240509
RWRIN

WEATHER ROUNDUP FOR INDIANA
NATIONAL WEATHER SERVICE INDIANAPOLIS IN
100 AM EDT THU JUL 24 2014

NOTE: "FAIR" INDICATES FEW OR NO CLOUDS BELOW 12,000 FEET WITH NO
SIGNIFICANT WEATHER AND/OR OBSTRUCTIONS TO VISIBILITY.

* - STATION DOES NOT REPORT WEATHER SUCH AS PRECIPITATION OR FOG.

+ - STATION NOT QUALITY CONTROLLED BY THE NATIONAL WEATHER SERVICE.
    USE DATA WITH CAUTION...ESPECIALLY DEWPOINT AND RELATIVE
    HUMIDITY OBSERVATIONS.

INZ001>003-010>013-019-020-240600-
NORTHWEST INDIANA

CITY           SKY/WX    TMP DP  RH WIND       PRES   REMARKS
GARY /AIRPORT/ MOCLDY    65  59  81 N7        30.13S
KNOX *+        CLEAR     54  52  92 CALM      30.10S
LA PORTE +     PTCLDY    59  56  90 NE8       30.12R
MICHIGAN CITY+ CLEAR     59  57  94 CALM      30.12R
MONTICELLO +   CLEAR     57  54  90 N6        30.08S
RENSSELAER +   CLEAR     54  54 100 NW3       30.11S
VALPARAISO     CLEAR     58  56  93 N3        30.12R

$$

LMZ046-743>745-240600-
SOUTHERN LAKE MICHIGAN

STATION/POSITION TIME  TEMP WIND        PRES
                       AIR  DIR/SP/G
                 (UTC) (F)  (DEG/KT/KT) (MB)
MICHIGAN CITY    0500   65   20/ 19/ 22   N/A

$$

INZ004-005-014>016-021>024-240600-
NORTH CENTRAL INDIANA

CITY           SKY/WX    TMP DP  RH WIND       PRES   REMARKS
GOSHEN         CLEAR     60  57  89 N7        30.09S
LOGANSPORT +   CLEAR     55  52  88 N10       30.09S
PERU/GRISSOM   CLEAR     60  58  96 N5        30.07S
ROCHESTER +    CLEAR     59  54  82 N3        30.09S
SOUTH BEND     PTCLDY    60  55  83 N3        30.12R
WARSAW +       CLEAR     57  55  94 N3        30.09S

$$

INZ006>009-017-018-025>027-240600-
NORTHEAST INDIANA

CITY           SKY/WX    TMP DP  RH WIND       PRES   REMARKS
ANGOLA *+      CLEAR     63  55  77 VRB6      30.09S
AUBURN +       PTCLDY    63  54  72 NE5       30.08S
FORT WAYNE     MOCLDY    64  59  83 CALM      30.08R
HUNTINGTON +   MOCLDY    61  58  91 CALM      30.07R

$$

INZ028-029-035-036-043>045-051>053-240600-
WEST CENTRAL INDIANA

CITY           SKY/WX    TMP DP  RH WIND       PRES   REMARKS
GREENCASTLE +  CLEAR     59  52  77 N6        30.07F
LAFAYETTE      CLEAR     58  50  75 CALM      30.09S
TERRE HAUTE    PTCLDY    59  50  72 N6        30.07F

$$

INZ030>032-037>040-046>048-054>057-064-065-240600-
CENTRAL INDIANA

CITY           SKY/WX    TMP DP  RH WIND       PRES   REMARKS
CP ATTERBURY + CLEAR     63  59  88 N6        30.05S
GREENWOOD *+   MOCLDY    64  61  88 N7        30.06
INDIANAPOLIS   PTCLDY    62  56  80 N10       30.05S
-EAGLE CREEK   CLEAR     61  55  81 N9        30.06R
KOKOMO *+      CLEAR     59  55  88 N6        30.08S
MARION +       PTCLDY    60  57  91 N3        30.08R
MT COMFORT *+  PTCLDY    61 N/A N/A N7        30.06S
SHELBYVILLE    CLOUDY    67  61  81 N7        30.04S
ZIONSVILLE +   CLEAR     59  54  82 N7        30.08S

$$

INZ033-034-041-042-049-050-058-059-240600-
EAST CENTRAL INDIANA

CITY           SKY/WX    TMP DP  RH WIND       PRES   REMARKS
MUNCIE         PTCLDY    62  58  86 N5        30.06S

$$

INZ060-061-067>069-081>083-085>088-240600-
SOUTHWEST INDIANA

CITY           SKY/WX    TMP DP  RH WIND       PRES   REMARKS
EVANSVILLE     CLOUDY    70  57  63 N12       30.04F
HUNTINGBURG *+ CLOUDY    70  57  64 N9G20     30.04R
WASHINGTON +   CLEAR     63  57  82 N7        30.05S

$$

INZ062-063-066-070>080-084-089>092-240600-
SOUTH CENTRAL AND SOUTHEAST INDIANA

CITY           SKY/WX    TMP DP  RH WIND       PRES   REMARKS
BLOOMINGTON    CLEAR     62  57  83 N9        30.06S
NORTH VERNON + CLOUDY    68  68 100 N3        30.04R
SEYMOUR +      CLOUDY    66  55  68 N6        30.03R

$$




USA.gov is the U.S. government's official web portal to all federal, state and local government web resources and services.